CLOUDSAT (29107 NORAD) Tracking and Keplerian Element Data

This shows tracking and keplerian element data for the satellite.

Feedback or suggestion? Click here.




ElementValue
Catalog29107
NameCLOUDSAT
Epoch Orbit66758
Epoch Day318.51591705
Epoch Year2018
RAAN260.2772
Inclination98.1597
Eccentricity0.0002609
Argument of Perigee60.9566
Mean Anonmoly299.1896
Mean Motion14.62286263
Decay Rate8.2E-07
L11 29107U 06016A 18318.51591705 .00000082 00000-0 25585-4 0 9995
L22 29107 98.1597 260.2772 0002609 60.9566 299.1896 14.62286263667581

Live tracking and technical data element details for CLOUDSAT (NORAD 29107). CLOUDSAT can be tracked NOW for your location showing map with azimuth and elevation plus other details from your city location.

Track the satellite on the map from your city or location and see movement details for azimuth, elevation, latitude, longitude, range, height, and movement on the map or in text.







IsCatalogInMostPopularTable: catalog: 29107, numindb: 42
Update: records affected: 1



GetName: 29107 CLOUDSAT

Hit Count: updated at: Fri, 16 Nov 2018 05:35:32 GMT